Regional Weather Roundup
Issued by NWS

Home | Current Version | Previous Version | Graphics & Text | Print | Product List | Glossary Off
Versions: 1 2 3 4 5 6 7 8 9 10 11 12 13 14 15 16 17 18 19 20 21 22 23 24 25 26 27 28 29 30 31 32 33 34 35 36 37 38 39 40 41 42 43 44 45 46 47 48 49 50

965
ASUS43 KMPX 241510
RWRMN
WEATHER ROUNDUP FOR MINNESOTA
NATIONAL WEATHER SERVICE TWIN CITIES/CHANHASSEN MN
1000 AM CDT FRI MAR 24 2017


NOTE: "FAIR" INDICATES FEW OR NO CLOUDS BELOW 12,000 FEET WITH NO
SIGNIFICANT WEATHER AND/OR OBSTRUCTIONS TO VISIBILITY. N/A MEANS
CURRENT SKY AND/OR WEATHER CONDITIONS ARE NOT AVAILABLE.

MNZ060>063-068>070-241600-
   Twin Cities Metro

CITY           SKY/WX    TMP DP  RH WIND       PRES   REMARKS
TWIN CITIES    CLOUDY    39  35  86 N12       29.97R
ST PAUL        CLOUDY    39  37  92 N8        29.98R FOG
CRYSTAL        CLOUDY    37  33  85 N7        29.96R FOG
BLAINE           N/A     37  37 100 N8        29.96R FOG
LAKEVILLE      CLOUDY    37  37 100 N9        29.95R FOG
EDEN PRAIRIE   CLOUDY    39  36  89 N12       29.95R FOG
SOUTH ST PAUL  CLOUDY    39  38  94 N6        29.96R
LAKE ELMO      CLOUDY    37  36  93 N5        29.97R FOG
$$
MNZ001>005-007-008-013>017-022>024-027-028-241600-
   Northwest Minnesota

CITY           SKY/WX    TMP DP  RH WIND       PRES   REMARKS
BEMIDJI        CLOUDY    33  31  92 N10       30.06R WCI  25
HALLOCK        CLOUDY    30  28  93 N15       30.16R WCI  19
ROSEAU         SUNNY     34  28  80 N12       30.13R WCI  25
WARROAD        SUNNY     34  27  75 N12       30.13R WCI  25
THIEF RVR FALL PTSUNNY   31  26  82 N13       30.12R WCI  21
CROOKSTON      MOSUNNY   32  28  86 N17       30.14R WCI  21
FOSSTON        CLOUDY    32  28  86 N13       30.09R WCI  22
DETROIT LAKES  CLOUDY    36  32  87 N10G17    30.06R
MOORHEAD       CLOUDY    36  34  93 N14       30.10R FOG
PARK RAPIDS    CLOUDY    35  30  82 N15       30.03R WCI  25
MAHNOMEN       PTSUNNY   35  33  92 N13       30.07S WCI  26
$$
MNZ006-009>011-018-025>026-241600-
   North Central Minnesota

CITY           SKY/WX    TMP DP  RH WIND       PRES   REMARKS
BAUDETTE       SUNNY     33  27  78 NW8       30.08R WCI  26
FLAG ISLAND    CLOUDY    32  25  74 N13       30.12R WCI  22
INTL FALLS     CLOUDY    36  31  82 N8        30.05R
WASKISH        PTSUNNY   36  30  80 NW8       30.07S
BIG FORK       CLOUDY    36  34  93 N6        30.04R
LONGVILLE      CLOUDY    34  34 100 NW6       30.02S WCI  29
GRAND RAPIDS   CLOUDY    34  31  88 N9        30.04R WCI  27
CRANE LAKE     CLOUDY    34  32  93 NW5       30.05R FOG     WCI  30
ORR            CLOUDY    34  30  86 CALM      30.01R FOG
COOK           CLOUDY    34  32  93 CALM      30.03R FOG
WALKER         CLOUDY    34  32  92 N8        30.03S WCI  27
$$
MNZ012-019>021-037-241600-
   Northeast Minnesota

CITY           SKY/WX    TMP DP  RH WIND       PRES   REMARKS
DULUTH         FOG       34  33  96 N12       29.98R VSB 1   WCI  25
ELY            CLOUDY    32  32 100 CALM      30.01R FOG
HIBBING        CLOUDY    32  32 100 N9        30.01R FOG     WCI  24
EVELETH        CLOUDY    33  31  93 N6        30.01R FOG     WCI  27
DULUTH HARBOR  CLOUDY    36  36 100 CALM      30.01R FOG
TWO HARBORS    CLOUDY    37  34  87 N5        29.98R HAZE
SILVER BAY     CLOUDY    36  34  93 CALM      29.98R FOG
GRAND MARAIS     N/A     38  32  79 VRB5      30.01R
G MARAIS ARPRT CLOUDY    30  27  86 N8        29.97R FOG     WCI  23
$$
MNZ029>031-032-039>041-046>048-054>057-064-241600-
   West Central Minnesota

CITY           SKY/WX    TMP DP  RH WIND       PRES   REMARKS
FERGUS FALLS   CLOUDY    36  34  93 N9G16     30.10R
WHEATON        CLOUDY    36  34  93 N7        30.11R FOG
MORRIS         CLOUDY    37  36  93 N14       30.04R FOG
ALEXANDRIA     CLOUDY    35  34  96 N9        30.04R FOG     WCI  28
ELBOW LAKE     CLOUDY    34  33  97 N9        30.06R FOG     WCI  27
WADENA         CLOUDY    34  32  93 N13       30.02S WCI  25
GLENWOOD       CLOUDY    36  36 100 N12       30.02R FOG
APPLETON       PTSUNNY   39  36  87 N15       30.04R
BENSON         CLOUDY    41  36  81 N8        30.04R
ORTONVILLE     CLOUDY    36  36 100 N14       30.05R FOG
MADISON        CLOUDY    39  39 100 N14       30.05R
WILLMAR        FAIR      37  37 100 N15G21    30.02R
$$
MNZ033>034-036-042>043-049>051-058-059-241600-
   Central Minnesota

CITY           SKY/WX    TMP DP  RH WIND       PRES   REMARKS
ST CLOUD       CLOUDY    37  35  92 N12G20    30.00R
SAUK CENTRE    CLOUDY    36  34  92 N14       30.01R
PAYNESVILLE      N/A     37  37 100 N10G16    30.01R
AITKIN         CLOUDY    37  32  81 N13       30.00R HAZE
PINE RIVER     CLOUDY    34  34 100 N9        30.06R FOG     WCI  26
BRAINERD       CLOUDY    35  33  92 N7        30.03R FOG     WCI  29
STAPLES        CLOUDY    34  34 100 N9G16     30.03R FOG     WCI  26
LONG PRAIRIE   CLOUDY    34  32  93 NW13      30.02R FOG     WCI  25
LITTLE FALLS   CLOUDY    34  34 100 N7        30.02R FOG     WCI  28
LITCHFIELD     CLOUDY    37  36  93 N7        30.01R
BUFFALO        CLOUDY    37  34  90 N10       29.99R
MAPLE LAKE     CLOUDY    37  37  98 N13       29.99R
HUTCHINSON     CLOUDY    37  36  96 N7        30.00R
$$
MNZ037-044-045-052-053-241600-
   East Central Minnesota

CITY           SKY/WX    TMP DP  RH WIND       PRES   REMARKS
PRINCETON      CLOUDY    39  37  93 N10       30.00R
MORA           CLOUDY    36  32  87 N7        30.01R
CAMBRIDGE      CLOUDY    39  36  87 N7        29.98R
RUSH CITY      CLOUDY    37  34  90 N9        29.99R
MOOSE LAKE     CLOUDY    37  34  87 N10       29.98R
HINCKLEY       CLOUDY    37  36  93 N10       29.99R
CLOQUET        CLOUDY    36  34  93 N13G18    29.99R FOG
MCGREGOR       CLOUDY    34  34 100 N8        30.02R WCI  27
$$
MNZ071>073-080-081-089-090-097-098-241600-
   Southwest Minnesota

CITY           SKY/WX    TMP DP  RH WIND       PRES   REMARKS
MONTEVIDEO     CLOUDY    37  37 100 NE12G20   30.05R
GRANITE FALLS  CLOUDY    38  36  91 N14       30.05R FOG
CANBY          CLOUDY    38  38  99 N10G18    30.05R
MARSHALL       CLOUDY    36  34  92 N15       30.01S
REDWOOD FALLS  CLOUDY    38  34  85 N9        30.00R
OLIVIA         CLOUDY    36  36 100 N13       30.01R
PIPESTONE      CLOUDY    36  32  87 NE14G21   29.98R FOG
WINDOM         CLOUDY    37  37 100 N17       29.94S FOG
WORTHINGTON    LGT RAIN  35  35 100 N20       29.95R VSB 1/4 WCI  24
JACKSON        FOG       36  36 100 VRB12     29.95R VSB 3/4
TRACY          CLOUDY    36  36 100 N15       29.99R FOG
SLAYTON        CLOUDY    34  34 100 N18G25    29.96R FOG     WCI  23
$$
MNZ065>067-074>077-082>085-091>093-241600-
   South Central Minnesota

CITY           SKY/WX    TMP DP  RH WIND       PRES   REMARKS
MANKATO        LGT RAIN  38  37  97 N8        29.97R FOG
NEW ULM        CLOUDY    37  36  93 N10       29.97R
ST JAMES       CLOUDY    37  37 100 N6        29.96S FOG
FAIRMONT       LGT RAIN  38  37  97 N13       29.93R FOG
GLENCOE        CLOUDY    37  37 100 N8        29.97R FOG
FARIBAULT      LGT RAIN  37  37 100 N8        29.95R
OWATONNA       RAIN      37  36  93 N7        29.93R
WASECA         DRIZZLE   36  36 100 N10       29.95R
ALBERT LEA     MIX PCPN  37  37 100 N9        29.92R
$$
MNZ078>079-086>088-094>096-241600-
   Southeast Minnesota

CITY           SKY/WX    TMP DP  RH WIND       PRES   REMARKS
ROCHESTER      LGT RAIN  38  38 100 N7        29.91R FOG
RED WING       CLOUDY    39  37  93 CALM      29.94R FOG
STANTON        LGT RAIN  39  37  92 N8        29.93R
DODGE CENTER   LGT RAIN  37  36  93 N8        29.91R
WINONA         CLOUDY    37  37 100 E3        29.92R FOG
AUSTIN         CLOUDY    39  37  93 N5        29.90R FOG
PRESTON        CLOUDY    38  37  94 NE5       29.90R FOG
$$
ABBREVIATIONS USED IN REMARKS
   TC - TEMPERATURES IN CELSIUS
  WCI - WIND CHILL INDEX
   HX - HEAT INDEX
  VSB - VISIBILITY
$$




USA.gov is the U.S. government's official web portal to all federal, state and local government web resources and services.